[[{"header":{"parameterUnit":"m.s-1","parameterCategory":1,"la1":30.2991,"la2":30.254,"lo1":-89.0895,"lo2":-89.0444,"dy":0.0017,"dx":0.0017,"nx":28,"ny":28,"refTime":"2025-03-04T09:00:00:Z","depth":0,"parameterNumber":2,"parameterNumberName":"U-component_of_WINDS"},"data":[0,0,0,0,0,0,0,0,0,0,0,0,0,0,0,0,0,0,0,0,0,0,0,0,0,0,0,0,0,0,0,0,0,0,0,0,0,0,0,0,0,0,0,0,0,0,0,0,0,0,0,0,0,0,0,0,0,0,10.3234,10.3236,0,10.3455,10.3458,10.346,10.3382,10.3377,10.3372,10.3367,10.3597,10.3607,10.3618,0,0,0,0,0,0,0,0,0,0,0,0,0,10.2746,10.2756,10.3233,10.3236,10.3239,10.3455,10.3458,10.3461,10.3383,10.3377,10.3371,10.3365,10.3593,10.3606,10.3619,0,0,0,0,0,0,0,0,0,0,0,0,0,10.2962,10.2759,10.3233,10.3226,10.3227,10.3454,10.3458,10.3462,10.3384,10.3376,10.3369,10.3362,10.3589,10.3605,10.3621,10.3868,0,0,10.367,10.3677,0,0,0,0,0,0,0,0,10.295,10.298,10.3224,10.3227,10.3229,10.3383,10.337,10.3598,10.3386,10.3325,10.3367,10.3359,10.3532,10.3552,10.361,10.3879,10.3889,10.3671,10.3681,10.3688,10.3692,0,0,0,0,0,0,0,10.2935,10.297,10.3321,10.3228,10.3231,10.3213,10.3235,10.3413,10.3467,10.3329,10.3324,10.3351,10.3532,10.3595,10.3615,10.3892,10.3671,10.3685,10.3695,10.3701,10.4379,10.4387,0,0,0,0,0,0,10.2919,10.2958,10.3314,10.3328,10.3068,10.3228,10.3253,10.3341,10.3465,10.3477,10.3357,10.3347,10.3571,10.3596,10.3623,10.3923,10.3688,10.3703,10.3712,10.4371,10.4381,10.439,0,0,0,0,0,0,10.2908,10.2951,10.3305,10.3142,10.3185,10.3244,10.3344,10.3349,10.3412,10.3486,10.3496,10.3412,10.3566,10.36,10.3808,10.393,10.371,10.3725,10.4361,10.4374,10.4385,10.4525,0,0,0,0,0,0,10.2895,10.2948,10.3041,10.3144,10.3194,10.3486,10.3351,10.3359,10.344,10.3428,10.354,10.3551,10.3563,10.3785,10.3824,10.3948,10.3737,10.435,10.4367,10.4381,10.451,10.4541,10.4567,0,0,0,0,0,10.2878,10.3072,10.3046,10.309,10.3312,10.3493,10.3522,10.3531,10.345,10.3546,10.3594,10.3547,10.391,10.3807,10.3851,10.3981,10.4343,10.4362,10.438,10.4497,10.4535,10.4566,0,0,0,0,0,0,10.2982,10.3085,10.3058,10.3291,10.3384,10.348,10.36,10.357,10.3689,10.3673,10.368,10.3706,10.3921,10.3971,10.3854,10.4229,10.4114,10.4143,10.4188,10.4225,10.4253,10.4237,10.375,0,0,0,0,0,10.3031,10.3169,10.3252,10.3449,10.3497,10.3541,10.362,10.3619,10.3716,10.3755,10.3818,10.3915,10.4051,10.414,10.4269,10.4516,10.4541,10.4628,10.4657,10.468,10.4705,10.4843,10.4883,10.4452,10.4451,10.4451,0,0,10.3136,10.321,10.3296,10.3472,10.3544,10.3688,10.3575,10.3731,10.3838,10.3779,10.398,10.403,10.4139,10.4368,10.4473,10.4417,10.483,10.4704,10.4722,10.4735,10.4866,10.4907,10.4943,10.4464,10.4462,10.446,0,0,10.3401,10.3469,10.3643,10.3718,10.3828,10.3856,10.3898,10.3999,10.403,10.4232,10.4192,10.432,10.4553,10.4633,10.4704,10.5002,10.4966,10.5044,10.5195,10.5329,10.5363,10.5393,10.5502,10.5541,10.5069,10.5069,10.5069,0,10.3518,10.3731,10.3736,10.3897,10.3977,10.393,10.4107,10.4179,10.4327,10.4384,10.432,10.4613,10.4683,10.4932,10.5005,10.5064,10.5114,10.5032,10.5357,10.5388,10.5416,10.552,10.5561,10.5078,10.5077,10.5076,10.5075,0,10.3871,10.402,10.4147,10.4291,10.4385,10.4553,10.4585,10.468,10.4671,10.4707,10.4915,10.4997,10.5143,10.5202,10.5195,10.5452,10.5414,10.5354,10.5239,10.5466,10.5564,10.5604,10.5091,10.5088,10.5085,10.5083,0,0,10.4207,10.4352,10.4399,10.4465,10.4585,10.4701,10.4868,10.501,10.5093,10.5197,10.5339,10.5538,10.5484,10.5565,10.5567,10.5685,10.5919,10.561,10.5613,10.5667,10.6211,10.6257,10.6303,10.5895,10.5902,10.5909,10.6202,0,10.4483,10.4776,10.4786,10.5054,10.5194,10.5152,10.5298,10.5388,10.5427,10.5552,10.5594,10.5737,10.5653,10.5702,10.5816,10.5866,10.6029,10.5845,10.6029,10.6036,10.6005,10.6353,10.6402,10.6675,10.624,10.6247,10.6251,0,10.4845,10.4961,10.5243,10.5345,10.5403,10.5534,10.5667,10.5787,10.5889,10.5909,10.6001,10.5986,10.6159,10.6038,10.6278,10.6153,10.6229,10.6265,10.6276,10.6295,10.6159,10.6384,10.6762,10.6804,10.6311,10.6307,10.6302,0,10.5066,10.5292,10.549,10.5548,10.5671,10.5764,10.582,10.5915,10.6001,10.6117,10.6174,10.6309,10.6384,10.649,10.6513,10.6422,10.6755,10.6635,10.6778,10.6778,10.6851,10.6847,10.725,10.6897,10.6897,10.6896,10.6895,0,10.5375,10.555,10.5591,10.5714,10.591,10.592,10.6114,10.6163,10.6248,10.6381,10.6353,10.6479,10.65,10.6632,10.6651,10.6849,10.6882,10.6904,10.6908,10.6908,10.6906,10.696,10.6942,10.6907,10.6904,10.6902,10.69,0,10.5655,10.5689,10.5904,10.6003,10.6032,10.6172,10.6258,10.6377,10.6412,10.658,10.6621,10.6677,10.683,10.6863,10.7045,10.7058,10.7293,10.7277,10.7259,10.7258,10.7401,10.7388,10.7854,10.7917,10.7521,10.7525,10.7528,0,10.5851,10.5985,10.6099,10.6185,10.6246,10.6385,10.6473,10.6489,10.6582,10.671,10.6814,10.6964,10.7085,10.7332,10.739,10.7529,10.7518,10.7671,10.7539,10.7536,10.7523,10.7516,10.7531,10.7697,10.7702,10.7705,10.7708,0,10.6196,10.6207,10.6334,10.6469,10.6575,10.6682,10.6783,10.6856,10.6886,10.6993,10.7149,10.7243,10.7428,10.7579,10.7719,10.7778,10.775,10.7749,10.779,10.7793,10.7778,10.7791,10.7331,10.7739,10.7736,10.7733,10.7732,10.773,10.6442,10.656,10.666,10.6803,10.6881,10.6978,10.7095,10.7145,10.7275,10.7427,10.7429,10.76,10.7701,10.7886,10.7954,10.809,10.8042,10.8101,10.8116,10.8131,10.8145,10.7755,10.8115,10.8114,10.8113,10.8113,10.8112,0,10.6789,10.6851,10.6982,10.7126,10.724,10.7202,10.7313,10.7411,10.7562,10.7658,10.7778,10.7958,10.8104,10.8174,10.8319,10.8414,10.8405,10.8452,10.8446,10.8461,10.8178,10.8129,10.8457,10.8457,10.8457,10.8457,10.8457,10.8457,10.6983,10.7181,10.7204,10.7442,10.7503,10.767,10.7737,10.7827,10.7904,10.8107,10.8228,10.8272,10.8359,10.851,10.8643,10.866,10.8716,10.877,10.8781,10.8516,10.8481,10.8447,10.8401,10.8781,10.8781,10.9052,10.9055,10.9057]},{"header":{"parameterUnit":"m.s-1","parameterCategory":1,"la1":30.2991,"la2":30.254,"lo1":-89.0895,"lo2":-89.0444,"dy":0.0017,"dx":0.0017,"nx":28,"ny":28,"refTime":"2025-03-04T09:00:00:Z","depth":0,"parameterNumber":3,"parameterNumberName":"V-component_of_WINDS"},"data":[0,0,0,0,0,0,0,0,0,0,0,0,0,0,0,0,0,0,0,0,0,0,0,0,0,0,0,0,0,0,0,0,0,0,0,0,0,0,0,0,0,0,0,0,0,0,0,0,0,0,0,0,0,0,0,0,0,0,-1.9273,-1.9273,0,-1.9276,-1.9277,-1.9277,-1.9269,-1.9269,-1.9269,-1.9268,-1.927,-1.927,-1.9271,0,0,0,0,0,0,0,0,0,0,0,0,0,-1.9261,-1.9261,-1.9273,-1.9274,-1.9274,-1.9276,-1.9277,-1.9277,-1.9269,-1.9269,-1.9268,-1.9268,-1.927,-1.927,-1.9271,0,0,0,0,0,0,0,0,0,0,0,0,0,-1.9266,-1.9262,-1.9273,-1.927,-1.927,-1.9276,-1.9277,-1.9277,-1.9269,-1.9269,-1.9268,-1.9268,-1.927,-1.927,-1.9271,-1.928,0,0,-1.9272,-1.9272,0,0,0,0,0,0,0,0,-1.9265,-1.9266,-1.9271,-1.927,-1.927,-1.9272,-1.9273,-1.9278,-1.9269,-1.9269,-1.9268,-1.9268,-1.9271,-1.9271,-1.9273,-1.928,-1.928,-1.9272,-1.9272,-1.9272,-1.9273,0,0,0,0,0,0,0,-1.9265,-1.9266,-1.9275,-1.9271,-1.927,-1.9269,-1.9269,-1.9274,-1.9272,-1.9269,-1.9269,-1.9269,-1.9271,-1.9272,-1.9273,-1.928,-1.9272,-1.9272,-1.9273,-1.9273,-1.9297,-1.9298,0,0,0,0,0,0,-1.9265,-1.9266,-1.9275,-1.9275,-1.9267,-1.9269,-1.9269,-1.9272,-1.9272,-1.9272,-1.927,-1.9269,-1.9272,-1.9272,-1.9273,-1.9284,-1.9272,-1.9273,-1.9273,-1.9297,-1.9297,-1.9298,0,0,0,0,0,0,-1.9265,-1.9266,-1.9274,-1.927,-1.9271,-1.927,-1.9272,-1.9272,-1.9273,-1.9272,-1.9272,-1.9271,-1.9271,-1.9272,-1.9279,-1.9284,-1.9273,-1.9273,-1.9296,-1.9297,-1.9298,-1.9307,0,0,0,0,0,0,-1.9265,-1.9266,-1.9269,-1.927,-1.9271,-1.9281,-1.9273,-1.9272,-1.9274,-1.9273,-1.9274,-1.9273,-1.9271,-1.9278,-1.9279,-1.9285,-1.9274,-1.9296,-1.9297,-1.9297,-1.9307,-1.9308,-1.931,0,0,0,0,0,-1.9264,-1.9272,-1.927,-1.9271,-1.9276,-1.9281,-1.9281,-1.9279,-1.9275,-1.9278,-1.9278,-1.9273,-1.9284,-1.9279,-1.928,-1.9286,-1.9296,-1.9296,-1.9297,-1.9306,-1.9308,-1.931,0,0,0,0,0,0,-1.9271,-1.9272,-1.9269,-1.9277,-1.9279,-1.928,-1.9284,-1.9281,-1.9284,-1.9283,-1.9279,-1.928,-1.9287,-1.9287,-1.9282,-1.9295,-1.9289,-1.929,-1.9295,-1.9297,-1.9299,-1.9298,-1.9274,0,0,0,0,0,-1.9273,-1.9278,-1.9278,-1.9285,-1.9286,-1.9285,-1.9287,-1.9285,-1.9287,-1.9287,-1.9287,-1.9289,-1.9293,-1.9295,-1.9298,-1.9307,-1.9307,-1.9311,-1.9313,-1.9314,-1.9315,-1.9321,-1.9323,-1.9301,-1.9301,-1.9301,0,0,-1.9278,-1.9279,-1.9282,-1.9286,-1.9288,-1.9292,-1.9286,-1.929,-1.9294,-1.9288,-1.9295,-1.9295,-1.9296,-1.9304,-1.9308,-1.9305,-1.9322,-1.9316,-1.9317,-1.9317,-1.9322,-1.9324,-1.9326,-1.9302,-1.9301,-1.9301,0,0,-1.9289,-1.9291,-1.9297,-1.9299,-1.9301,-1.93,-1.9302,-1.9303,-1.9303,-1.931,-1.9306,-1.931,-1.9316,-1.9318,-1.9319,-1.9333,-1.933,-1.9334,-1.9342,-1.9348,-1.935,-1.9351,-1.9357,-1.9358,-1.9335,-1.9336,-1.9336,0,-1.9295,-1.9302,-1.93,-1.9306,-1.9308,-1.9304,-1.9311,-1.9312,-1.9315,-1.9317,-1.9314,-1.9322,-1.9323,-1.9332,-1.9335,-1.9337,-1.9339,-1.9334,-1.935,-1.9351,-1.9353,-1.9358,-1.936,-1.9336,-1.9336,-1.9336,-1.9336,0,-1.9309,-1.9314,-1.9319,-1.9323,-1.9326,-1.9332,-1.9331,-1.9335,-1.9333,-1.9333,-1.934,-1.9341,-1.9345,-1.9347,-1.9345,-1.9356,-1.9354,-1.935,-1.9344,-1.9355,-1.936,-1.9362,-1.9337,-1.9337,-1.9337,-1.9336,0,0,-1.9323,-1.9327,-1.9329,-1.9331,-1.9334,-1.9338,-1.9345,-1.9349,-1.9352,-1.9355,-1.936,-1.9366,-1.9363,-1.9365,-1.9363,-1.9368,-1.938,-1.9364,-1.9364,-1.9367,-1.9393,-1.9396,-1.9398,-1.9378,-1.9378,-1.9379,-1.9393,0,-1.9335,-1.9346,-1.9345,-1.9356,-1.9361,-1.9358,-1.9363,-1.9366,-1.9366,-1.9371,-1.9371,-1.9376,-1.9371,-1.9372,-1.9377,-1.9378,-1.9385,-1.9377,-1.9383,-1.9383,-1.9382,-1.94,-1.9403,-1.9416,-1.9394,-1.9395,-1.9395,0,-1.9349,-1.9353,-1.9364,-1.9368,-1.937,-1.9375,-1.938,-1.9384,-1.9387,-1.9387,-1.939,-1.9388,-1.9395,-1.9389,-1.9398,-1.9392,-1.9395,-1.9396,-1.9396,-1.9397,-1.9389,-1.9401,-1.942,-1.9422,-1.9398,-1.9398,-1.9397,0,-1.9359,-1.9367,-1.9375,-1.9377,-1.9381,-1.9385,-1.9387,-1.939,-1.9393,-1.9397,-1.9399,-1.9404,-1.9406,-1.941,-1.941,-1.9405,-1.9419,-1.9413,-1.942,-1.942,-1.9422,-1.9422,-1.9442,-1.9424,-1.9424,-1.9424,-1.9424,0,-1.9372,-1.9379,-1.938,-1.9385,-1.9393,-1.9392,-1.94,-1.9402,-1.9405,-1.941,-1.9407,-1.9412,-1.9412,-1.9417,-1.9416,-1.9425,-1.9426,-1.9426,-1.9426,-1.9426,-1.9426,-1.9428,-1.9427,-1.9425,-1.9425,-1.9425,-1.9425,0,-1.9383,-1.9385,-1.9393,-1.9397,-1.9398,-1.9404,-1.9407,-1.9412,-1.9413,-1.9419,-1.9421,-1.9422,-1.9428,-1.9429,-1.9435,-1.9435,-1.9445,-1.9444,-1.9444,-1.9444,-1.9451,-1.945,-1.9473,-1.9476,-1.9456,-1.9456,-1.9456,0,-1.9391,-1.9397,-1.9402,-1.9405,-1.9407,-1.9413,-1.9417,-1.9417,-1.9421,-1.9426,-1.943,-1.9436,-1.9441,-1.9451,-1.9452,-1.9458,-1.9456,-1.9464,-1.9457,-1.9458,-1.9457,-1.9457,-1.9457,-1.9465,-1.9465,-1.9466,-1.9466,0,-1.9406,-1.9406,-1.9411,-1.9417,-1.9422,-1.9426,-1.943,-1.9434,-1.9434,-1.9439,-1.9445,-1.9449,-1.9457,-1.9463,-1.9469,-1.947,-1.9468,-1.9468,-1.947,-1.947,-1.947,-1.9471,-1.9448,-1.9467,-1.9467,-1.9467,-1.9467,-1.9467,-1.9416,-1.9421,-1.9425,-1.9432,-1.9435,-1.9439,-1.9444,-1.9446,-1.9452,-1.9458,-1.9458,-1.9466,-1.947,-1.9477,-1.948,-1.9486,-1.9483,-1.9486,-1.9486,-1.9487,-1.9488,-1.947,-1.9487,-1.9487,-1.9487,-1.9487,-1.9487,0,-1.943,-1.9433,-1.9439,-1.9446,-1.9451,-1.9449,-1.9454,-1.9458,-1.9465,-1.9469,-1.9474,-1.9483,-1.9489,-1.9492,-1.9498,-1.9502,-1.9501,-1.9504,-1.9503,-1.9504,-1.949,-1.9488,-1.9504,-1.9504,-1.9504,-1.9504,-1.9504,-1.9504,-1.9438,-1.9447,-1.9448,-1.9459,-1.9462,-1.947,-1.9473,-1.9477,-1.948,-1.949,-1.9495,-1.9497,-1.9501,-1.9508,-1.9514,-1.9514,-1.9517,-1.952,-1.952,-1.9507,-1.9505,-1.9503,-1.9501,-1.952,-1.952,-1.9534,-1.9534,-1.9534]}]]